Find Starlink 38083

NORAD ID: 100385 Int'l Des: 2026-190 Owner: SPXS Country: US Constellation: starlink operational

Aktuelle Ansicht

3D-Globus wird geladen...

About Starlink 38083

Starlink 38083 (NORAD 100385) is a starlink constellation satellite launched Aug 19, 2026 by SPXS of US. with a mass of 575.00 kg.

Nächste Überflüge

Passes for default location (London). Set your location on the main map for personalized predictions.

Höhenverlauf

Loading altitude history...

Zweizeiliger Elementsatz

1 A0385U 26190Q 26255.12120181 .00161373 00000-0 10641-2 0 9995
2 A0385 97.2835 109.0192 0001116 90.2947 269.8446 15.75155194 5056
Epoch: 12. Sept. 2026 • Age: 15 hours

Aktueller Status

Höhe 359.9 km
Apogäum / Perigäum N/A
Geschwindigkeit 7.69 km/s
Subsatellitenpunkt -40.87°S, 145.47°W
Startdatum 19. Aug. 2026
Alter 24 days
Typ internet

Technische Details

Klassifizierung Payload
Masse 575.00 kg
Trockenmasse 530.00 kg
Gesamtmasse 575.00 kg
Länge 0.30 m
Durchmesser 4.10 m
Spannweite 29.00 m
Form Box + pan
Hersteller SPXS
Bus-Typ Starlink V2MO
Phasenstatus In Orbit
Besitzer/Staat SPXS/US

Most Searched